Regional Weather Roundup
Issued by NWS

Home | Current Version | Previous Version | Text Only | Print | Product List | Glossary Off
Versions: 1 2 3 4 5 6 7 8 9 10 11 12 13 14 15 16 17 18 19 20 21 22 23 24 25 26 27 28 29 30 31 32 33 34 35 36 37 38 39 40 41 42 43 44 45 46 47 48 49 50

000
ASUS43 KLMK 241910
RWRKY
KENTUCKY REGIONAL WEATHER ROUNDUP
NATIONAL WEATHER SERVICE LOUISVILLE KY
300 PM EDT TUE APR 24 2018

NOTE "FAIR" INDICATES FEW OR NO CLOUDS BELOW 12,000 FEET
WITH NO SIGNIFICANT WEATHER AND/OR OBSTRUCTIONS TO VISIBILITY.

KYZ001>023-026-027-061>063-070>075-242000-
WESTERN AND SOUTH CENTRAL KENTUCKY

CITY           SKY/WX    TMP DP  RH WIND       PRES   REMARKS
PADUCAH        CLOUDY    62  56  80 NW12      29.95S
HENDERSON      LGT RAIN  57  54  89 NW12      29.95S
OWENSBORO      CLOUDY    58  54  86 NW12      29.93S
HOPKINSVILLE   CLOUDY    63  55  77 NW9       29.93R
BOWLING GREEN  CLOUDY    60  57  89 VRB7      29.90S
GLASGOW        RAIN      61  55  80 NW8       29.89S
$$

KYZ024-025-028>034-038-045-046-053-242000-
NORTH CENTRAL KENTUCKY

CITY           SKY/WX    TMP DP  RH WIND       PRES   REMARKS
LOUISVILLE/SDF CLOUDY    58  54  86 N6        29.89F
LOUISVILLE/LOU LGT RAIN  57  56  96 N3        29.90F
FORT KNOX      CLOUDY    57  56  96 W9        29.90S
$$

KYZ035>037-039>044-047>052-055>060-089>105-242000-
NORTHEAST KENTUCKY

CITY           SKY/WX    TMP DP  RH WIND       PRES   REMARKS
LEXINGTON      LGT RAIN  57  53  86 CALM      29.89F
COVINGTON      DRIZZLE   55  54  96 NE9       29.90F FOG
FRANKFORT      CLOUDY    57  52  83 CALM      29.88S
$$

KYZ054-064>069-076>088-106>120-242000-
SOUTHEAST KENTUCKY

CITY           SKY/WX    TMP DP  RH WIND       PRES   REMARKS
JACKSON        CLOUDY    62  52  69 CALM      29.87F
LONDON         CLOUDY    63  55  75 NW3       29.86F
SOMERSET       CLOUDY    61  52  72 CALM      29.88F
MIDDLESBORO    CLOUDY    62  54  74 CALM      29.86F
MONTICELLO     MOCLDY    64  56  75 N15G21    29.88F
$$




USA.gov is the U.S. government's official web portal to all federal, state and local government web resources and services.